Location: Iowa City
(41.6610°N, 91.5300°W)
Time: 01:11:29
(UTC-05:00)

ISS - Visible Passes

Search period start: 31 August 2016 00:00
Search period end: 10 September 2016 00:00
Orbit: 402 x 406 km, 51.6° (Epoch: 30 August)

Date Brightness Start Highest point End Pass type
(mag) Time Alt. Az. Time Alt. Az. Time Alt. Az.
03 Sep -0.3 05:26:00 10° SE 05:26:50 11° SE 05:27:41 10° ESE visible
05 Sep -1.5 05:16:03 14° S 05:18:05 25° SE 05:20:51 10° ENE visible
06 Sep -0.6 04:26:01 13° SE 04:26:01 13° SE 04:27:32 10° E visible
06 Sep -3.3 05:58:41 10° WSW 06:01:55 71° NNW 06:05:12 10° NE visible
07 Sep -3.1 05:08:34 41° SSW 05:09:28 61° SE 05:12:43 10° ENE visible
08 Sep -1.1 04:18:22 23° E 04:18:22 23° E 04:20:02 10° ENE visible
08 Sep -2.3 05:51:01 14° W 05:53:31 35° NNW 05:56:35 10° NE visible
09 Sep -3.2 05:00:46 56° NW 05:00:58 58° NNW 05:04:13 10° NE visible
